Hourly Data Report for November 19, 2019

QUALICUM BEACH AIRPORT
BRITISH COLUMBIA
Current Station Operator: ECCC - MSC

49°20'14.000" N
124°23'38.000" W
58.20 m
1026562
71766
VOQ

Download Data

Hourly Data (November 2019)
Hourly Data Report for November 19, 2019
TIME
LST
Temp Definition
°C
Dew Point Definition
°C
Rel Hum Definition
%
Precip. Amount Definition
mm

Wind Dir Definition
10's deg

Wind Spd Definition
km/h
Visibility Definition
km
Stn Press Definition
kPa
Hmdx Definition


Wind Chill Definition


Weather Definition


00:00 7.9 7.4 96 LegendMM 25 4   99.94     LegendNANA
01:00 7.8 7.1 96 LegendMM 25 4   99.94     LegendNANA
02:00 7.5 6.7 94 LegendMM 26 5   99.97     LegendNANA
03:00 7.8 6.7 93 LegendMM 29 9   100.04     LegendNANA
04:00 6.8 5.5 91 LegendMM 28 8   100.02     LegendNANA
05:00 5.6 4.6 94 LegendMM 27 5   100.06     LegendNANA
06:00 5.7 4.2 90 LegendMM 27 7   100.11     LegendNANA
07:00 5.4 3.6 88 LegendMM 27 8   100.17     LegendNANA
08:00 5.8 3.8 87 LegendMM 26 8   100.29     LegendNANA
09:00 7.3 4.2 80 LegendMM 28 7   100.40     LegendNANA
10:00 8.3 4.0 75 LegendMM 26 6   100.50     LegendNANA
11:00 9.8 3.8 66 LegendMM 30 10   100.58     LegendNANA
12:00 10.2 3.7 64 LegendMM 30 13   100.67     LegendNANA
13:00 11.0 4.2 63 LegendMM 29 9   100.70     LegendNANA
14:00 11.5 3.7 59 LegendMM 31 12   100.71     LegendNANA
15:00 11.5 4.8 63 LegendMM 31 12   100.81     LegendNANA
16:00 9.8 5.5 74 LegendMM 30 7   100.94     LegendNANA
17:00 6.3 5.0 92 LegendMM 26 5   101.00     LegendNANA
18:00 8.5 3.2 70 LegendMM 30 8   101.06     LegendNANA
19:00 8.4 1.8 63 LegendMM 30 14   101.15     LegendNANA
20:00 7.4 1.5 66 LegendMM 31 8   101.24     LegendNANA
21:00 6.4 2.4 76 LegendMM 28 6   101.35     LegendNANA
22:00 6.1 1.9 75 LegendMM 30 6   101.40     LegendNANA
23:00 3.9 1.7 85 LegendMM 26 5   101.43     LegendNANA

Notes on Data Quality.

Legend

  • E = Estimated
  • M = Missing
  • NA = Not Available*
  • [empty] = Indicates an unobserved value
Date modified: